| time (UTC) | temp F | wind direction | speed MPH | gust MPH | rain 1hr in | rain 24hr in | rain mn in | humidity % | barometer mb |
| 20260503210241 | 55 | 148 | 0.0 | 11.0 | 0.00 | 0.00 | 0.00 | 32 | 1009.5 |
| 20260503210235 | 55 | 20 | 1.0 | 13.0 | 0.00 | 0.00 | 0.00 | 32 | 1009.5 |
| 20260503205734 | 55 | 149 | 0.0 | 13.0 | 0.00 | 0.00 | 0.00 | 32 | 1009.6 |
| 20260503204734 | 55 | 347 | 2.0 | 7.0 | 0.00 | 0.00 | 0.00 | 33 | 1009.3 |
| 20260503204233 | 55 | 213 | 0.0 | 2.0 | 0.00 | 0.00 | 0.00 | 31 | 1009.4 |
| 20260503203736 | 56 | 343 | 0.0 | 6.0 | 0.00 | 0.00 | 0.00 | 31 | 1009.5 |
| 20260503203235 | 56 | 235 | 0.0 | 6.0 | 0.00 | 0.00 | 0.00 | 31 | 1009.5 |
| 20260503202734 | 56 | 219 | 0.0 | 9.0 | 0.00 | 0.00 | 0.00 | 31 | 1009.5 |
| 20260503202232 | 55 | 23 | 1.0 | 9.0 | 0.00 | 0.00 | 0.00 | 31 | 1009.4 |
| 20260503201733 | 56 | 138 | 1.0 | 9.0 | 0.00 | 0.00 | 0.00 | 31 | 1009.5 |
| 20260503201233 | 55 | 86 | 0.0 | 9.0 | 0.00 | 0.00 | 0.00 | 30 | 1009.5 |
| 20260503200734 | 55 | 68 | 0.0 | 6.0 | 0.00 | 0.00 | 0.00 | 31 | 1009.6 |
| 20260503200235 | 55 | 262 | 1.0 | 14.0 | 0.00 | 0.00 | 0.00 | 32 | 1009.7 |
| 20260503195733 | 55 | 264 | 1.0 | 14.0 | 0.00 | 0.00 | 0.00 | 32 | 1009.8 |
| 20260503195237 | 55 | 252 | 0.0 | 12.0 | 0.00 | 0.00 | 0.00 | 32 | 1009.8 |
| 20260503195233 | 55 | 254 | 1.0 | 11.0 | 0.00 | 0.00 | 0.00 | 33 | 1009.7 |
| 20260503194233 | 55 | 1 | 2.0 | 12.0 | 0.00 | 0.00 | 0.00 | 31 | 1009.9 |
| 20260503193733 | 54 | 285 | 0.0 | 10.0 | 0.00 | 0.00 | 0.00 | 33 | 1010.3 |
| 20260503193232 | 54 | 331 | 1.0 | 10.0 | 0.00 | 0.00 | 0.00 | 33 | 1010.0 |
| 20260503192732 | 54 | 11 | 0.0 | 3.0 | 0.00 | 0.00 | 0.00 | 35 | 1010.1 |
| 20260503192233 | 54 | 212 | 0.0 | 3.0 | 0.00 | 0.00 | 0.00 | 38 | 1010.3 |
| 20260503191730 | 53 | 141 | 0.0 | 12.0 | 0.00 | 0.00 | 0.00 | 36 | 1010.2 |
| 20260503191232 | 54 | 321 | 3.0 | 12.0 | 0.00 | 0.00 | 0.00 | 33 | 1010.4 |
| 20260503190732 | 54 | 180 | 1.0 | 10.0 | 0.00 | 0.00 | 0.00 | 33 | 1010.3 |
| 20260503190230 | 55 | 276 | 3.0 | 9.0 | 0.00 | 0.00 | 0.00 | 33 | 1010.4 |
| 20260503185730 | 55 | 188 | 0.0 | 15.0 | 0.00 | 0.00 | 0.00 | 36 | 1010.5 |
| 20260503185232 | 54 | 207 | 0.0 | 15.0 | 0.00 | 0.00 | 0.00 | 35 | 1010.4 |
| 20260503184731 | 54 | 72 | 0.0 | 6.0 | 0.00 | 0.00 | 0.00 | 40 | 1010.5 |
| 20260503184230 | 53 | 245 | 1.0 | 11.0 | 0.00 | 0.00 | 0.00 | 36 | 1010.6 |
| 20260503183735 | 53 | 99 | 1.0 | 11.0 | 0.00 | 0.00 | 0.00 | 38 | 1010.7 |
| 20260503183731 | 53 | 269 | 0.0 | 11.0 | 0.00 | 0.00 | 0.00 | 36 | 1010.5 |
| 20260503182729 | 54 | 58 | 3.0 | 11.0 | 0.00 | 0.00 | 0.00 | 37 | 1010.7 |
| 20260503182229 | 53 | 241 | 1.0 | 10.0 | 0.00 | 0.00 | 0.00 | 38 | 1010.8 |
| 20260503181730 | 53 | 186 | 2.0 | 10.0 | 0.00 | 0.00 | 0.00 | 38 | 1010.6 |
| 20260503181230 | 53 | 252 | 0.0 | 3.0 | 0.00 | 0.00 | 0.00 | 41 | 1010.9 |
| 20260503180734 | 52 | 337 | 1.0 | 9.0 | 0.00 | 0.00 | 0.00 | 38 | 1010.9 |
| 20260503180729 | 52 | 1 | 0.0 | 9.0 | 0.00 | 0.00 | 0.00 | 40 | 1010.9 |
| 20260503175729 | 51 | 237 | 0.0 | 5.0 | 0.00 | 0.00 | 0.00 | 40 | 1010.9 |
| 20260503175228 | 51 | 329 | 0.0 | 9.0 | 0.00 | 0.00 | 0.00 | 41 | 1011.0 |
| 20260503174737 | 51 | 51 | 2.0 | 18.0 | 0.00 | 0.00 | 0.00 | 37 | 1011.0 |
| 20260503174727 | 51 | 295 | 1.0 | 9.0 | 0.00 | 0.00 | 0.00 | 38 | 1011.0 |
| 20260503174228 | 51 | 248 | 0.0 | 9.0 | 0.00 | 0.00 | 0.00 | 39 | 1011.1 |
| 20260503173729 | 51 | 264 | 0.0 | 18.0 | 0.00 | 0.00 | 0.00 | 38 | 1011.0 |
| 20260503172727 | 52 | 281 | 0.0 | 10.0 | 0.00 | 0.00 | 0.00 | 41 | 1011.1 |
| 20260503172228 | 51 | 345 | 0.0 | 10.0 | 0.00 | 0.00 | 0.00 | 41 | 1011.1 |
| 20260503171726 | 51 | 223 | 0.0 | 7.0 | 0.00 | 0.00 | 0.00 | 42 | 1011.0 |
| 20260503171225 | 50 | 355 | 0.0 | 12.0 | 0.00 | 0.00 | 0.00 | 44 | 1011.1 |
| 20260503170848 | 49 | 271 | 0.0 | 9.0 | 0.00 | 0.00 | 0.00 | 43 | 1011.3 |
| 20260503170731 | 50 | 131 | 0.0 | 5.0 | 0.00 | 0.00 | 0.00 | 43 | 1011.3 |
| 20260503170727 | 50 | 240 | 1.0 | 12.0 | 0.00 | 0.00 | 0.00 | 44 | 1011.3 |
| 20260503150724 | 47 | 230 | 0.0 | 0.0 | 0.00 | 0.00 | 0.00 | 49 | 1011.8 |
| 20260503150222 | 47 | 6 | 0.0 | 2.0 | 0.00 | 0.00 | 0.00 | 47 | 1011.8 |
| 20260503130719 | 45 | 166 | 0.0 | 1.0 | 0.00 | 0.00 | 0.00 | 60 | 1012.3 |
| 20260503130223 | 44 | 123 | 0.0 | 2.0 | 0.00 | 0.00 | 0.00 | 58 | 1012.3 |
| 20260503110714 | 41 | 80 | 0.0 | 0.0 | 0.00 | 0.00 | 0.00 | 69 | 1011.7 |
| 20260503110214 | 41 | 20 | 0.0 | 0.0 | 0.00 | 0.00 | 0.00 | 72 | 1011.7 |
| 20260503100219 | 35 | 330 | 0.0 | 0.0 | 0.00 | 0.00 | 0.00 | 78 | 1011.1 |
| 20260503100214 | 35 | 123 | 0.0 | 0.0 | 0.00 | 0.00 | 0.00 | 78 | 1011.1 |
| 20260503090216 | 34 | 78 | 0.0 | 0.0 | 0.00 | 0.00 | 0.00 | 82 | 1011.0 |
| 20260503090212 | 34 | 78 | 0.0 | 0.0 | 0.00 | 0.00 | 0.00 | 82 | 1010.9 |
| 20260503081208 | 34 | 274 | 0.0 | 0.0 | 0.00 | 0.00 | 0.00 | 84 | 1011.3 |
| 20260503080709 | 34 | 274 | 0.0 | 0.0 | 0.00 | 0.00 | 0.00 | 84 | 1011.3 |
| 20260503080210 | 33 | 274 | 0.0 | 0.0 | 0.00 | 0.00 | 0.00 | 83 | 1011.2 |
| 20260503072708 | 34 | 279 | 0.0 | 0.0 | 0.00 | 0.01 | 0.00 | 84 | 1011.2 |
| 20260503072207 | 34 | 268 | 0.0 | 0.0 | 0.00 | 0.01 | 0.00 | 83 | 1011.3 |
| 20260503071713 | 34 | 275 | 0.0 | 0.0 | 0.00 | 0.01 | 0.00 | 83 | 1011.3 |
| 20260503071708 | 34 | 264 | 0.0 | 0.0 | 0.00 | 0.01 | 0.00 | 83 | 1011.3 |
| 20260503070706 | 34 | 268 | 0.0 | 0.0 | 0.00 | 0.01 | 0.00 | 84 | 1011.3 |
| 20260503070206 | 34 | 272 | 0.0 | 0.0 | 0.00 | 0.01 | 0.00 | 83 | 1011.3 |
| 20260503054204 | 34 | 314 | 0.0 | 0.0 | 0.00 | 0.12 | 0.00 | 84 | 1012.1 |
| 20260503053704 | 34 | 314 | 0.0 | 0.0 | 0.00 | 0.12 | 0.00 | 84 | 1012.1 |
| 20260503053203 | 34 | 316 | 0.0 | 0.0 | 0.00 | 0.12 | 0.00 | 83 | 1012.2 |
| 20260503052704 | 34 | 275 | 0.0 | 0.0 | 0.00 | 0.13 | 0.00 | 83 | 1012.2 |
| 20260503052207 | 35 | 275 | 0.0 | 0.0 | 0.00 | 0.14 | 0.00 | 82 | 1012.4 |
| 20260503052203 | 34 | 275 | 0.0 | 0.0 | 0.00 | 0.14 | 0.00 | 83 | 1012.3 |
| 20260503051204 | 35 | 275 | 0.0 | 0.0 | 0.00 | 0.14 | 0.00 | 81 | 1012.3 |
| 20260503050704 | 35 | 338 | 0.0 | 0.0 | 0.00 | 0.15 | 0.00 | 80 | 1012.3 |
| 20260503050203 | 35 | 259 | 0.0 | 0.0 | 0.00 | 0.15 | 0.00 | 79 | 1012.3 |
| 20260503045703 | 36 | 285 | 0.0 | 0.0 | 0.00 | 1.45 | 0.00 | 78 | 1012.4 |
| 20260503045202 | 36 | 286 | 0.0 | 0.0 | 0.00 | 1.45 | 0.00 | 77 | 1012.4 |
| 20260503044703 | 36 | 286 | 0.0 | 0.0 | 0.00 | 1.45 | 0.00 | 76 | 1012.4 |
| 20260503044203 | 37 | 293 | 0.0 | 0.0 | 0.00 | 1.45 | 0.00 | 74 | 1012.5 |
| 20260503043703 | 37 | 324 | 0.0 | 0.0 | 0.00 | 1.46 | 0.00 | 73 | 1012.6 |
| 20260503043206 | 38 | 324 | 0.0 | 0.0 | 0.00 | 1.49 | 0.00 | 72 | 1012.6 |
| 20260503043202 | 38 | 324 | 0.0 | 0.0 | 0.00 | 1.48 | 0.00 | 72 | 1012.5 |
| 20260503042201 | 38 | 326 | 0.0 | 0.0 | 0.00 | 1.51 | 0.00 | 71 | 1012.6 |
| 20260503041705 | 38 | 330 | 0.0 | 0.0 | 0.00 | 1.54 | 0.00 | 71 | 1012.6 |
| 20260503041201 | 39 | 314 | 0.0 | 0.0 | 0.00 | 1.56 | 0.00 | 69 | 1012.6 |
| 20260503040702 | 39 | 312 | 0.0 | 0.0 | 0.00 | 1.58 | 0.00 | 69 | 1012.5 |
| 20260503040201 | 39 | 312 | 0.0 | 0.0 | 0.00 | 1.58 | 0.00 | 68 | 1012.6 |
| 20260503035700 | 40 | 278 | 0.0 | 0.0 | 0.00 | 1.58 | 0.29 | 67 | 1012.6 |
| 20260503035159 | 40 | 331 | 0.0 | 0.0 | 0.00 | 1.58 | 0.29 | 67 | 1012.6 |
| 20260503034659 | 40 | 331 | 0.0 | 0.0 | 0.00 | 1.58 | 0.29 | 67 | 1012.5 |
| 20260503034203 | 41 | 321 | 0.0 | 0.0 | 0.00 | 1.58 | 0.29 | 65 | 1012.6 |
| 20260503033204 | 41 | 331 | 0.0 | 0.0 | 0.00 | 1.58 | 0.29 | 63 | 1012.6 |
| 20260503033159 | 41 | 321 | 0.0 | 0.0 | 0.00 | 1.58 | 0.29 | 64 | 1012.6 |
| 20260503032200 | 41 | 319 | 0.0 | 0.0 | 0.00 | 1.58 | 0.29 | 63 | 1012.5 |
| 20260503031658 | 42 | 327 | 0.0 | 0.0 | 0.00 | 1.58 | 0.29 | 62 | 1012.5 |
| 20260503031200 | 42 | 299 | 0.0 | 0.0 | 0.00 | 1.58 | 0.29 | 61 | 1012.7 |
| 20260503030701 | 42 | 329 | 0.0 | 0.0 | 0.00 | 1.59 | 0.29 | 61 | 1012.6 |
| 20260503030657 | 42 | 337 | 0.0 | 0.0 | 0.00 | 1.59 | 0.29 | 61 | 1012.7 |
| 20260503025659 | 42 | 358 | 0.0 | 0.0 | 0.00 | 1.59 | 0.29 | 61 | 1012.8 |
| 20260503024659 | 42 | 330 | 0.0 | 0.0 | 0.00 | 1.59 | 0.29 | 61 | 1012.9 |
| 20260503024158 | 42 | 344 | 0.0 | 0.0 | 0.00 | 1.59 | 0.29 | 61 | 1012.8 |
| 20260503023658 | 42 | 329 | 0.0 | 0.0 | 0.00 | 1.60 | 0.29 | 60 | 1012.8 |
| 20260503023157 | 42 | 327 | 0.0 | 0.0 | 0.00 | 1.60 | 0.29 | 59 | 1012.9 |
| 20260503022658 | 42 | 343 | 0.0 | 0.0 | 0.00 | 1.61 | 0.29 | 59 | 1012.8 |
| 20260503022157 | 42 | 323 | 0.0 | 0.0 | 0.00 | 1.63 | 0.29 | 59 | 1012.9 |
| 20260503021657 | 42 | 282 | 0.0 | 0.0 | 0.00 | 1.63 | 0.29 | 59 | 1012.9 |
| 20260503021158 | 42 | 337 | 0.0 | 0.0 | 0.00 | 1.63 | 0.29 | 58 | 1012.9 |
| 20260503020659 | 42 | 331 | 0.0 | 0.0 | 0.00 | 1.63 | 0.29 | 58 | 1012.9 |
| 20260503020156 | 42 | 10 | 0.0 | 0.0 | 0.00 | 1.63 | 0.29 | 59 | 1012.9 |
| 20260503015656 | 42 | 340 | 0.0 | 0.0 | 0.00 | 1.63 | 0.29 | 59 | 1012.9 |
| 20260503015156 | 43 | 307 | 0.0 | 0.0 | 0.00 | 1.63 | 0.29 | 59 | 1012.8 |
| 20260503014656 | 43 | 266 | 0.0 | 0.0 | 0.00 | 1.63 | 0.29 | 58 | 1012.9 |
| 20260503014158 | 43 | 316 | 0.0 | 0.0 | 0.00 | 1.63 | 0.29 | 58 | 1012.9 |
| 20260503013654 | 43 | 348 | 0.0 | 0.0 | 0.00 | 1.63 | 0.29 | 58 | 1012.9 |
| 20260503013154 | 43 | 341 | 0.0 | 0.0 | 0.00 | 1.63 | 0.29 | 56 | 1012.8 |
| 20260503012655 | 44 | 341 | 0.0 | 0.0 | 0.00 | 1.63 | 0.29 | 55 | 1012.8 |
| 20260503012155 | 44 | 341 | 0.0 | 0.0 | 0.00 | 1.63 | 0.29 | 55 | 1012.7 |
| 20260503011655 | 44 | 358 | 0.0 | 0.0 | 0.00 | 1.63 | 0.29 | 55 | 1012.7 |
| 20260503011154 | 44 | 323 | 0.0 | 0.0 | 0.00 | 1.63 | 0.29 | 55 | 1012.7 |
| 20260503010655 | 44 | 326 | 0.0 | 0.0 | 0.00 | 1.63 | 0.29 | 55 | 1012.7 |
| 20260503010155 | 44 | 329 | 0.0 | 0.0 | 0.00 | 1.63 | 0.29 | 54 | 1012.7 |
| 20260503005655 | 44 | 313 | 0.0 | 0.0 | 0.00 | 1.63 | 0.29 | 53 | 1012.6 |
| 20260503005154 | 44 | 252 | 0.0 | 0.0 | 0.00 | 1.63 | 0.29 | 52 | 1012.6 |
| 20260503004658 | 45 | 319 | 0.0 | 0.0 | 0.00 | 1.63 | 0.29 | 50 | 1012.5 |
| 20260503004654 | 45 | 233 | 0.0 | 0.0 | 0.00 | 1.63 | 0.29 | 52 | 1012.5 |
| 20260503003653 | 45 | 293 | 0.0 | 0.0 | 0.00 | 1.63 | 0.29 | 51 | 1012.4 |
| 20260503003152 | 45 | 293 | 0.0 | 0.0 | 0.00 | 1.63 | 0.29 | 50 | 1012.3 |
| 20260503002659 | 46 | 230 | 0.0 | 0.0 | 0.00 | 1.63 | 0.29 | 47 | 1012.1 |
| 20260503002655 | 46 | 293 | 0.0 | 0.0 | 0.00 | 1.63 | 0.29 | 49 | 1012.2 |
| 20260503001653 | 47 | 228 | 0.0 | 0.0 | 0.00 | 1.63 | 0.29 | 46 | 1012.1 |
| 20260503001152 | 47 | 340 | 0.0 | 0.0 | 0.00 | 1.63 | 0.29 | 45 | 1012.2 |
| 20260503000652 | 47 | 14 | 0.0 | 0.0 | 0.00 | 1.63 | 0.29 | 44 | 1012.1 |
| 20260503000153 | 48 | 20 | 0.0 | 0.0 | 0.00 | 1.63 | 0.29 | 44 | 1012.1 |
| 20260502235652 | 48 | 3 | 0.0 | 0.0 | 0.00 | 1.63 | 0.29 | 43 | 1012.0 |
| 20260502235152 | 48 | 62 | 0.0 | 0.0 | 0.00 | 1.63 | 0.29 | 43 | 1012.0 |
| 20260502234652 | 48 | 219 | 0.0 | 0.0 | 0.00 | 1.63 | 0.29 | 44 | 1012.0 |
| 20260502234152 | 49 | 92 | 0.0 | 0.0 | 0.00 | 1.63 | 0.29 | 45 | 1011.9 |
| 20260502233652 | 49 | 271 | 0.0 | 0.0 | 0.00 | 1.63 | 0.29 | 45 | 1011.9 |
| 20260502233151 | 50 | 271 | 0.0 | 0.0 | 0.00 | 1.63 | 0.29 | 43 | 1011.7 |
| 20260502232651 | 50 | 324 | 0.0 | 0.0 | 0.00 | 1.63 | 0.29 | 40 | 1011.7 |
| 20260502232152 | 50 | 259 | 0.0 | 0.0 | 0.00 | 1.63 | 0.29 | 42 | 1011.6 |
| 20260502231650 | 50 | 200 | 0.0 | 0.0 | 0.00 | 1.63 | 0.29 | 40 | 1011.6 |
| 20260502231152 | 51 | 334 | 0.0 | 0.0 | 0.00 | 1.63 | 0.29 | 38 | 1011.6 |
| 20260502230650 | 51 | 324 | 0.0 | 0.0 | 0.00 | 1.63 | 0.29 | 38 | 1011.6 |
| 20260502230150 | 51 | 140 | 0.0 | 0.0 | 0.00 | 1.63 | 0.29 | 37 | 1011.6 |
| 20260502225651 | 51 | 338 | 0.0 | 0.0 | 0.00 | 1.63 | 0.29 | 38 | 1011.6 |
| 20260502225150 | 52 | 307 | 0.0 | 0.0 | 0.00 | 1.63 | 0.29 | 38 | 1011.6 |
| 20260502224650 | 52 | 58 | 0.0 | 0.0 | 0.00 | 1.63 | 0.29 | 36 | 1011.5 |
| 20260502224150 | 53 | 85 | 0.0 | 0.0 | 0.00 | 1.63 | 0.29 | 36 | 1011.3 |
| 20260502223650 | 53 | 58 | 0.0 | 0.0 | 0.00 | 1.63 | 0.29 | 37 | 1011.3 |
| 20260502223149 | 53 | 197 | 0.0 | 0.0 | 0.00 | 1.63 | 0.29 | 37 | 1011.2 |
| 20260502222655 | 53 | 261 | 0.0 | 0.0 | 0.00 | 1.63 | 0.29 | 37 | 1011.3 |
| 20260502222649 | 53 | 351 | 0.0 | 0.0 | 0.00 | 1.63 | 0.29 | 37 | 1011.3 |
| 20260502221649 | 53 | 65 | 0.0 | 1.0 | 0.00 | 1.63 | 0.29 | 36 | 1011.3 |
| 20260502221148 | 53 | 7 | 0.0 | 1.0 | 0.00 | 1.63 | 0.29 | 38 | 1011.2 |
| 20260502220649 | 53 | 31 | 0.0 | 2.0 | 0.00 | 1.63 | 0.29 | 38 | 1011.2 |
| 20260502220149 | 53 | 350 | 0.0 | 1.0 | 0.00 | 1.63 | 0.29 | 39 | 1011.1 |
| 20260502215648 | 52 | 93 | 0.0 | 2.0 | 0.00 | 1.63 | 0.29 | 38 | 1011.1 |
| 20260502215149 | 52 | 314 | 0.0 | 2.0 | 0.00 | 1.63 | 0.29 | 40 | 1011.2 |
| 20260502214647 | 51 | 102 | 0.0 | 1.0 | 0.00 | 1.63 | 0.29 | 41 | 1011.1 |
| 20260502214153 | 53 | 58 | 0.0 | 0.0 | 0.00 | 1.63 | 0.29 | 41 | 1011.2 |
| 20260502214149 | 52 | 68 | 0.0 | 1.0 | 0.00 | 1.63 | 0.29 | 40 | 1011.2 |
| 20260502213148 | 52 | 0 | 0.0 | 0.0 | 0.00 | 1.63 | 0.29 | 40 | 1011.1 |
| 20260502212650 | 51 | 13 | 0.0 | 2.0 | 0.00 | 1.63 | 0.29 | 40 | 1011.1 |
| 20260502212646 | 52 | 1 | 0.0 | 2.0 | 0.00 | 1.63 | 0.29 | 40 | 1011.1 |
| 20260502211653 | 52 | 227 | 0.0 | 0.0 | 0.00 | 1.63 | 0.29 | 39 | 1011.2 |
| 20260502211646 | 51 | 47 | 0.0 | 0.0 | 0.00 | 1.63 | 0.29 | 39 | 1011.1 |
| 20260502211146 | 52 | 8 | 0.0 | 2.0 | 0.00 | 1.63 | 0.29 | 41 | 1011.0 |
| 20260502210646 | 52 | 317 | 0.0 | 2.0 | 0.00 | 1.63 | 0.29 | 39 | 1011.1 |